SCP
0 0 1 1 0 0 0 0 0 0 0 0 0 0 0 0 0 0 0 0 0 0 0 0 0 0 0 0 0 0 0 0 0 0 0 0 0 0 0 0 0 0 0 0 0 0 0 0 0
0 0 1 1 0 0 0 0 0 0 0 0 0 0 0 0 0 0 0 0 0 0 0 0 0 0 0 0 0 0 0 0 0 0 0 0 0 0 0 0 0 0 0 0 0 0 0 0 0
0 0 0 0 0 0 0 0 0 0 0 0 0 0 0 0 0 0 0 0 0 0 0 0 0 0 0 0 0 0 0 0 0 0 0 0 0 0 0 0 0 0 0 0 0 0 0 0 0
0 0 0 0 0 0 0 0 0 0 0 0 0 0 0 0 0 0 0 0 0 0 0 0 0 0 0 0 0 0 0 0 0 0 0 0 0 0 0 0 0 0 0 0 0 0 0 0 0
0 0 0 0 0 0 0 0 0 0 0 0 0 0 0 0 0 0 0 0 0 0 0 0 0 0 0 0 0 0 0 0 0 0 0 0 0 0 0 0 0 0 0 0 0 0 0 0 0
0 0 0 0 0 0 0 0 0 0 0 0 0 0 0 0 0 0 0 0 0 0 0 0 0 0 0 0 0 0 0 0 0 0 0 0 0 0 0 0 0 0 0 0 0 0 0 0 0
0 0 0 0 0 0 0 0 0 0 0 0 0 0 0 0 0 0 0 0 0 0 0 0 0 0 0 0 0 0 0 0 0 0 0 0 0 0 0 0 0 0 0 0 0 0 0 0 0
0 0 0 0 0 0 0 0 0 0 0 0 0 0 0 0 0 0 0 0 0 0 0 0 0 0 0 0 0 0 0 0 0 0 0 0 0 0 0 0 0 0 0 0 0 0 0 0 0
0 0 0 0 0 0 0 0 0 0 0 0 0 0 0 0 0 0 0 0 0 0 0 0 0 0 0 0 0 0 0 0 0 0 0 0 0 0 0 0 0 0 0 0 0 0 0 0 0
0 0 0 0 0 0 0 0 0 0 0 0 0 0 0 0 0 0 0 0 0 0 0 0 0 0 0 0 0 0 0 0 0 0 0 0 0 0 0 0 0 0 0 0 0 0 0 0 0
0 0 0 0 0 0 0 0 0 0 0 0 0 0 0 0 0 0 0 0 0 0 0 0 0 0 0 0 0 0 0 0 0 0 0 0 0 0 0 0 0 0 0 0 0 0 0 0 0
0 0 0 0 0 0 0 0 0 0 0 0 0 0 0 0 0 0 0 0 0 0 0 0 0 0 0 0 0 0 0 0 0 0 0 0 0 0 0 0 0 0 0 0 0 0 0 0 0
0 0 0 0 0 0 0 0 0 0 0 0 0 0 0 0 0 0 0 1 0 0 0 0 0 0 0 0 0 0 0 0 0 0 0 0 0 0 0 0 0 0 0 0 0 0 0 0 0
0 0 0 0 0 0 0 0 0 0 0 0 0 0 0 0 0 1 1 1 1 0 0 0 0 0 0 0 0 0 0 0 0 0 0 0 0 0 0 0 0 0 0 0 0 0 0 0 0
0 0 0 0 0 0 0 0 0 0 0 0 0 0 1 1 1 1 1 1 1 0 0 0 0 0 0 0 0 0 0 0 0 0 0 0 0 0 0 0 0 0 0 0 0 0 0 0 0
0 0 0 0 0 0 0 0 0 0 0 0 0 1 1 1 1 1 1 1 1 1 1 0 0 0 0 0 0 0 0 0 0 0 0 0 0 0 0 0 0 0 0 0 0 0 0 0 0
0 0 0 0 0 0 0 0 0 0 0 0 0 1 1 1 1 1 1 1 1 1 1 1 0 1 1 0 0 0 0 0 0 0 0 0 0 0 0 0 0 0 0 0 0 0 0 0 0
0 0 0 0 0 0 0 0 0 0 0 0 0 1 1 1 1 1 1 1 1 1 1 1 1 1 1 1 0 0 0 0 0 0 0 0 0 0 0 0 0 0 0 0 0 0 0 0 0
0 0 0 0 0 0 0 0 0 0 0 0 0 1 1 1 1 1 1 1 1 1 1 1 1 1 1 1 1 0 0 0 0 0 0 0 0 0 0 0 0 0 0 0 0 0 0 0 0
0 0 0 0 0 0 0 0 0 0 0 0 0 1 1 1 2 2 2 1 1 1 1 1 1 1 1 1 1 0 0 0 0 0 0 0 0 0 0 0 0 0 0 0 0 0 0 0 0
0 0 0 0 0 0 0 0 0 0 0 0 0 1 1 1 2 2 2 2 2 2 1 1 1 1 1 1 1 1 0 0 0 0 1 0 0 0 0 0 0 0 0 0 0 0 0 0 0
0 0 0 0 0 0 0 0 0 0 0 0 0 1 1 1 1 2 2 2 2 2 2 2 2 1 1 1 1 1 1 0 0 1 1 1 0 0 0 0 0 0 0 0 0 0 0 0 0
0 0 0 0 0 0 0 0 0 0 0 0 0 0 1 1 1 1 2 2 2 2 2 2 2 2 1 1 1 1 1 0 0 1 1 1 0 0 0 0 0 0 0 0 0 0 1 0 0
0 0 0 0 0 0 0 0 0 0 0 0 0 1 1 1 1 1 1 2 2 2 2 2 2 2 1 1 1 1 1 0 0 0 0 0 0 0 0 0 1 1 0 0 0 1 1 1 1
0 0 0 0 0 0 0 0 0 0 0 0 0 1 1 1 1 1 1 2 2 1 1 2 2 2 1 1 1 1 1 1 0 0 0 0 0 0 0 1 1 1 1 1 0 1 1 1 1
0 0 0 0 0 0 0 0 0 0 0 0 0 1 1 1 1 1 1 2 1 1 1 2 2 2 1 1 1 1 1 1 1 1 0 0 0 0 0 0 1 1 1 1 1 1 0 0 0
0 0 0 0 0 0 0 0 0 0 0 0 0 1 1 1 1 1 1 1 1 1 2 2 2 2 1 1 1 1 1 1 1 1 0 0 0 0 0 0 1 1 1 1 1 1 0 0 0
0 0 0 0 0 0 0 0 0 0 0 0 0 1 1 1 1 1 1 1 1 1 2 2 2 2 1 1 1 1 1 1 1 1 0 0 0 0 0 1 1 1 1 1 1 0 0 0 0
0 0 0 0 0 0 0 0 0 0 0 0 0 1 1 1 1 1 1 1 1 2 2 2 2 2 1 1 1 1 1 1 1 1 0 0 0 0 1 1 1 1 1 0 0 0 0 0 0
0 0 0 0 0 0 0 0 0 0 0 0 0 1 1 1 1 1 1 1 1 2 2 2 2 1 1 1 1 1 1 1 1 1 0 0 0 0 1 1 1 1 0 0 0 0 0 0 0
Wind_Speed
9 11 9 6 2 6 16 16 16 15 16 15 15 15 18 17 13 13 12 16 17 16 14 14 13 13 13 13 13 13 14 14 14 14 14 14 15 15 15 15 15 16 16 16 16 15 15 15 15
10 12 9 4 3 10 15 14 15 15 14 15 18 19 19 19 17 15 13 14 16 16 14 14 13 13 13 12 12 13 13 14 14 14 14 14 14 14 14 15 15 15 15 15 15 15 14 14 13
12 14 6 1 11 13 14 14 14 13 13 15 18 18 15 15 15 13 13 16 17 16 15 14 14 13 13 12 12 12 13 13 14 14 14 13 14 14 14 14 14 14 14 14 14 14 13 13 11
9 7 3 8 16 15 13 13 13 13 13 14 15 13 15 14 15 14 14 16 17 17 16 14 13 13 12 12 12 12 12 13 13 14 13 13 13 13 14 14 14 13 13 14 13 13 12 11 9
8 5 5 12 16 14 13 13 13 13 15 18 18 17 16 16 15 14 13 15 16 17 16 14 13 13 12 12 11 11 11 12 13 13 13 13 13 13 13 13 13 13 13 13 12 12 11 9 7
5 3 6 12 15 13 12 13 13 13 15 17 18 17 15 14 13 12 12 13 16 17 16 14 13 13 12 11 11 11 11 12 12 12 12 12 12 12 12 12 12 12 12 12 11 10 9 7 5
5 2 8 14 13 13 12 13 13 12 12 14 17 16 14 13 12 12 11 12 14 16 16 13 12 11 12 11 11 11 11 11 11 11 11 11 11 11 11 11 11 11 10 10 10 9 8 6 4
2 1 8 12 13 13 12 13 13 12 10 10 13 13 14 13 12 12 10 11 12 12 14 13 13 12 10 10 10 10 10 10 10 9 9 10 10 10 10 10 9 9 9 8 8 7 6 4 3
3 2 8 12 12 13 12 13 13 12 11 13 15 17 16 14 13 13 10 10 10 10 9 10 12 11 10 11 11 10 10 9 8 8 8 7 6 8 7 9 8 8 7 7 6 6 5 4 4
3 5 10 10 11 12 12 11 12 12 13 15 16 18 16 13 12 11 11 11 10 9 8 8 9 7 6 8 8 6 7 7 5 5 6 4 2 4 7 9 8 7 6 6 6 6 5 5 3
5 7 8 11 11 10 10 10 10 11 12 16 17 17 14 12 10 10 10 11 10 8 7 9 9 5 5 5 4 3 3 4 4 4 3 3 3 4 5 4 5 5 6 4 5 6 5 4 3
5 5 7 9 8 8 9 9 11 12 14 17 17 16 14 12 10 10 11 11 9 7 7 9 8 6 4 3 3 3 3 3 3 3 2 2 1 1 2 2 3 3 3 2 2 2 2 1 1
4 5 6 8 7 8 8 9 11 13 16 17 17 15 13 11 10 10 11 11 9 7 7 8 8 6 4 3 1 2 3 4 4 3 2 2 2 1 1 1 0 1 1 2 1 1 1 0 1
2 3 4 6 8 8 7 6 8 12 16 16 15 13 12 12 11 10 10 9 8 7 8 8 7 6 4 2 1 1 2 3 3 3 3 1 2 2 1 1 1 1 0 1 1 1 0 1 1
2 2 4 5 7 7 8 4 7 11 14 15 14 13 12 12 11 11 10 9 9 8 7 7 7 7 5 3 1 1 1 3 3 3 3 2 2 2 1 1 1 1 1 1 0 1 1 1 1
5 5 4 4 6 8 7 5 9 10 12 13 13 13 12 10 11 10 11 8 8 8 7 5 5 7 5 2 1 0 1 2 2 3 3 3 2 2 1 1 1 0 1 1 1 1 1 1 1
8 8 6 5 6 7 6 7 9 10 12 12 12 12 12 11 10 10 11 10 8 8 7 5 3 6 6 4 2 1 1 1 1 2 2 2 2 2 1 1 0 1 1 1 2 1 1 1 1
7 6 6 7 7 5 6 9 10 11 12 12 12 12 12 12 11 11 10 10 9 8 7 6 4 4 4 4 2 1 1 1 1 1 2 2 2 2 1 1 2 1 1 1 1 0 1 2 2
6 6 4 4 5 2 3 6 10 10 10 12 12 12 12 12 12 11 11 11 10 8 7 6 5 4 3 2 2 2 2 2 2 2 2 2 1 1 1 1 1 1 1 1 1 1 2 2 2
9 8 5 4 4 3 2 3 7 10 10 10 11 12 12 13 13 12 11 11 10 9 8 6 5 5 4 3 2 2 1 2 2 1 2 2 2 1 1 1 1 1 1 2 2 1 2 2 2
9 8 6 4 4 6 4 4 6 8 8 10 11 12 13 14 14 14 12 11 11 10 9 7 6 6 5 4 2 2 1 1 1 1 2 2 1 1 1 0 1 2 1 1 2 2 3 2 2
9 8 8 6 5 5 7 4 7 9 9 11 11 12 13 14 14 14 13 12 11 10 9 7 7 6 5 4 3 4 3 2 2 1 1 2 1 1 0 0 1 2 1 1 2 2 2 2 2
8 6 7 8 8 8 6 4 6 9 11 11 11 10 11 12 13 13 13 12 10 10 10 8 7 6 5 4 4 3 2 1 0 1 2 1 1 0 0 0 1 1 1 2 2 2 2 1 2
8 7 7 9 9 9 9 6 5 6 8 10 10 10 9 11 13 12 12 11 10 9 9 9 7 6 5 5 4 3 2 1 1 0 0 1 1 1 0 1 1 1 1 2 2 2 2 1 1
10 8 6 7 6 8 9 7 5 7 6 6 8 9 9 9 12 12 12 12 10 10 9 9 8 6 6 5 4 4 3 2 2 1 1 0 0 1 1 1 1 1 1 2 2 1 1 1 1
12 12 9 6 7 7 8 5 5 6 5 6 8 9 9 10 10 10 11 11 11 10 9 8 9 7 6 5 4 3 2 2 1 0 0 1 1 1 2 1 1 1 2 2 2 1 1 1 1
13 12 12 11 11 8 4 5 7 8 6 6 8 9 10 10 11 11 11 10 10 10 9 8 9 7 6 5 4 3 3 2 2 1 1 1 1 1 2 2 2 1 2 2 2 2 2 2 1
14 11 8 9 8 8 5 5 6 10 9 7 7 7 9 11 12 13 11 10 9 9 8 8 8 7 6 5 4 4 3 3 2 2 2 2 3 2 2 3 2 2 2 3 2 2 2 2 2
14 14 10 7 8 8 6 2 4 8 8 7 7 8 8 11 11 12 12 11 10 10 9 8 8 7 6 5 4 4 4 3 3 3 3 2 2 2 2 2 2 3 3 3 2 2 3 3 3
15 15 12 8 7 7 6 0 3 5 7 7 7 8 9 10 10 12 12 11 10 10 10 9 8 7 7 6 5 5 4 4 4 3 3 3 2 2 2 2 2 3 3 3 4 3 3 4 4
Wind_Direction
244 239 229 249 245 72 69 67 69 70 68 66 64 67 60 58 73 91 107 107 108 108 106 97 88 88 86 84 84 82 81 81 81 81 83 84 86 88 88 90 91 91 91 91 92 93 94 95 96
267 251 234 235 62 73 72 73 74 74 76 76 74 75 74 74 85 98 105 109 110 108 104 98 95 92 90 88 87 86 85 84 84 84 85 86 89 91 91 91 92 91 92 93 96 97 97 97 98
259 253 257 126 68 71 77 79 82 83 84 82 76 69 74 86 93 104 115 111 103 101 101 102 100 97 93 92 90 88 87 87 87 87 87 88 90 92 91 92 95 94 96 97 97 98 100 99 101
263 250 201 77 75 73 81 91 92 90 89 86 86 79 76 86 101 113 119 115 113 113 108 106 104 100 96 93 93 92 90 91 91 90 89 91 91 93 94 93 95 94 94 96 97 98 101 102 105
248 268 91 85 83 80 78 81 84 85 85 85 88 91 90 94 107 117 121 119 119 113 113 113 110 105 101 98 97 96 96 96 95 93 93 94 94 94 95 95 94 94 93 94 97 99 101 104 107
266 261 88 87 87 85 85 89 88 87 95 102 103 102 102 114 121 125 123 119 118 117 115 117 115 112 108 105 101 98 99 99 100 99 98 99 99 99 99 98 97 96 96 96 98 101 104 107 108
276 332 93 95 95 90 87 90 91 88 89 100 108 110 120 126 125 120 116 113 115 119 125 132 130 122 116 112 109 106 104 103 105 106 108 109 108 107 104 101 101 101 101 103 105 106 111 118 120
318 335 89 95 94 91 90 93 95 96 90 103 116 117 127 127 129 119 117 115 113 115 125 135 133 134 137 128 124 119 117 118 117 117 121 124 124 122 120 114 108 109 111 113 116 120 123 134 157
330 27 75 86 94 101 100 100 102 101 92 76 83 110 123 132 130 129 125 111 106 106 117 126 127 142 144 137 137 141 136 136 139 139 145 153 153 139 134 110 122 122 125 131 137 145 155 173 201
50 61 73 83 93 102 104 108 116 115 106 97 96 107 123 135 137 135 132 123 118 121 121 112 114 122 130 127 142 156 151 155 175 152 165 183 146 120 120 132 144 147 153 161 175 182 192 209 204
67 79 85 90 93 101 105 108 112 113 116 119 121 127 135 138 139 131 122 117 120 124 121 115 110 112 107 114 145 138 131 144 147 132 134 124 126 135 137 154 160 173 185 196 181 200 214 212 201
92 85 88 91 93 102 101 93 92 93 104 117 127 135 141 146 139 130 123 121 122 118 111 111 108 94 73 79 106 125 132 138 131 138 146 120 124 110 124 157 171 179 188 189 189 209 205 217 207
96 101 100 109 112 90 80 86 92 99 106 116 129 139 146 143 133 122 119 118 122 122 113 101 102 99 88 48 20 110 108 117 120 131 114 129 131 110 100 90 161 194 161 167 171 227 140 94 280
94 116 124 122 106 101 95 90 103 112 118 126 135 143 147 138 133 124 120 124 131 131 122 118 121 115 115 113 17 53 101 110 124 130 131 137 111 103 106 151 281 275 90 100 127 216 198 221 261
241 208 172 143 135 128 111 110 117 125 130 137 142 146 143 137 135 135 136 139 139 133 125 128 141 135 141 145 197 155 132 131 127 128 133 146 126 142 163 176 221 215 198 141 194 276 272 238 230
226 232 217 160 154 143 139 133 143 152 143 143 147 147 145 140 145 145 140 140 139 138 136 152 155 140 142 145 196 354 108 111 118 131 141 153 149 169 197 224 224 220 238 193 196 237 279 303 291
224 210 199 180 177 158 150 142 160 161 152 150 150 152 151 151 155 148 145 146 142 136 140 148 138 135 148 161 169 174 87 67 112 132 139 147 166 181 200 215 171 256 283 275 256 144 216 271 277
243 223 196 178 169 171 154 150 159 162 160 155 158 161 159 161 162 154 151 148 144 142 145 149 150 138 151 156 158 181 194 169 173 146 143 143 175 201 234 207 196 224 237 255 272 238 234 245 256
270 268 247 151 130 192 170 156 160 164 165 159 164 164 165 164 161 157 158 154 153 150 151 158 164 157 165 165 177 184 194 203 194 180 156 158 182 200 237 303 179 232 233 241 254 251 251 237 221
257 259 242 160 151 214 202 184 176 172 175 167 168 165 167 165 162 161 162 161 160 157 159 165 172 169 178 172 176 192 209 215 184 149 150 161 179 213 221 199 263 253 248 256 263 253 266 260 221
256 266 269 243 188 202 201 211 197 187 180 171 177 173 173 171 168 167 170 170 168 167 170 176 175 170 177 174 177 204 202 250 238 163 158 169 179 194 295 5 286 297 280 271 266 258 253 260 262
247 247 267 272 260 242 224 220 197 184 193 184 182 178 176 172 169 170 172 173 173 168 169 166 165 166 170 183 194 198 208 216 200 187 147 146 168 207 206 267 286 297 295 283 267 253 257 248 261
254 259 253 262 260 265 248 229 195 184 192 194 184 181 177 166 166 171 170 170 172 169 165 162 158 163 173 190 198 210 240 242 211 125 131 142 156 179 270 224 307 317 303 301 301 317 303 274 255
251 257 246 253 259 255 253 249 175 185 187 182 177 173 172 163 161 164 163 159 164 164 160 158 155 164 173 185 190 197 233 270 301 319 156 177 159 132 16 79 27 347 319 308 303 304 286 275 281
226 235 231 228 236 248 248 241 147 159 164 156 156 159 164 169 158 159 157 156 158 163 164 157 153 160 167 175 185 189 205 217 224 242 224 239 130 89 60 41 34 354 320 315 316 315 306 295 279
216 232 241 244 234 226 224 220 144 136 124 130 142 146 155 161 153 154 152 155 159 164 160 151 149 155 160 166 169 172 182 197 186 235 11 49 52 57 51 61 62 18 339 337 352 335 316 326 312
219 227 243 258 272 270 209 179 148 132 134 136 142 145 154 155 150 149 149 154 156 158 155 150 142 144 149 153 148 144 140 128 117 97 56 50 55 70 49 50 54 34 9 359 13 5 2 356 339
238 232 240 251 269 274 251 218 174 155 157 156 146 144 149 147 149 143 147 151 152 146 140 134 134 137 142 147 155 145 138 135 116 94 82 74 52 35 43 40 33 33 26 18 17 15 13 14 3
218 228 235 247 260 266 271 266 164 150 152 154 150 147 152 143 142 141 143 147 144 140 134 133 133 137 142 139 135 129 130 129 117 97 88 85 68 38 48 42 40 40 33 28 29 33 24 20 12
223 226 224 231 240 261 267 231 106 140 147 145 140 136 132 132 139 142 141 139 138 137 136 137 140 145 144 136 129 122 117 111 107 98 88 84 82 65 54 51 50 53 44 34 35 36 36 32 29